Retour au catalogue

STARLINK-33713

ActifCommunicationsVLEO
NORAD 63479·PAYLOAD·🇺🇸 United States

Lancé Apr 6, 2025 depuis Cape Canaveral Space Force Station

Loading…

Prochains Passages (prochaines 24 heures)

TLE

FraisSource: CelesTrak SupGP

Époque: Sep 15, 2026, 03:13 UTC

1 63479C 25070V   26258.13451389 -.00014754  00000+0 -53451-3 0  2581
2 63479  43.0029 266.2086 0001380 267.7817  37.4132 15.27578600    11

Suivez STARLINK-33713 en temps réel avec AllMySat

Download on the App Store